Tracking 25534 objects as of 29-Jan-2022
HD Live streaming from Space Station
objects crossing your sky now

THOR ABLESTAR DEB

Track THOR ABLESTAR DEB now!
10-day predictions


NORAD ID: 3164
Int'l Code: 1961-015HZ
Perigee: 868.7 km
Apogee: 933.2 km
Inclination: 66.7 °
Period: 102.9 minutes
Semi major axis: 7271 km
RCS: 0.0289 m2 (small)
Launch date: June 29, 1961
Source: United States (US)
Launch site: AIR FORCE EASTERN TEST RANGE (AFETR)

Note: This is SATELLITE DEBRIS
aabbcc
Your satellite tracking list
Your tracking list is empty




NASA's NSSDC Master Catalog

Two Line Element Set (TLE):
1 03164U 61015HZ  22028.58811391  .00000244  00000-0  21778-3 0  9995
2 03164  66.7491 120.0088 0044352  88.4198 272.1965 13.99984340863430
Source of the keplerian elements: AFSPC